Current Weather Conditions by Major Hwy


I-84 West to East [Columbia River Gorge] 400 AM PDT MON SEP 24 2018 ELEVA CITY SKY/WX TMP DP RH WIND PRES REMARKS 10 ASTORIA, OR CLEAR 45 44 97 SE5 30.21R 20 KELSO NOT AVBL 40 PORTLAND, OR CLEAR 51 46 83 CALM 30.21R 30 TROUTDALE, OR CLEAR 47 44 90 CALM 30.20R 240 THE DALLES, OR CLEAR 53 43 68 NW10 30.14R 620 HERMISTON, OR CLEAR 38 32 79 CALM 30.13R 1,480 PENDLETON, OR CLEAR 41 31 67 SE6 30.13R 2,710 LA GRANDE CLEAR 31 26 82 NE3 30.14R 3,370 BAKER CITY CLEAR 30 25 81 CALM 30.11R 2,190 ONTARIO CLEAR 48 28 46 W10 30.07R
I-90 West to East 400 AM PDT MON SEP 24 2018 ELEVA CITY SKY/WX TMP DP RH WIND PRES REMARKS 30 SEATAC AIRPORT MOCLDY 51 43 74 SE3 30.22R 1,730 ELLENSBURG CLEAR 50 37 61 NW15 30.12R 1,200 MOSES LAKE CLEAR 45 32 60 N5 30.10R 1,880 SPOKANE GEIGER PTCLDY 49 32 52 S7 30.07S
I-82 North West to South East 400 AM PDT MON SEP 24 2018 ELEVA CITY SKY/WX TMP DP RH WIND PRES REMARKS 1,730 ELLENSBURG CLEAR 50 37 61 NW15 30.12R 1,050 YAKIMA TC NOT AVBL 720 360 PASCO CLEAR 43 37 79 CALM 30.12R 620 HERMISTON, OR CLEAR 38 32 79 CALM 30.13R
Hwy97 North to South 400 AM PDT MON SEP 24 2018 ELEVA CITY SKY/WX TMP DP RH WIND PRES REMARKS 850 OMAK CLEAR 49 35 58 NW10 30.12R 630 WENATCHEE CLEAR 49 37 63 NW8 30.13R 1,730 ELLENSBURG CLEAR 50 37 61 NW15 30.12R 1,050 YAKIMA TC NOT AVBL 1,640 GOLDENDALE* CLEAR 53 43 68 NW10 30.14R *From Dallesport Airport Elev 240 3,080 REDMOND PTCLDY 33 27 78 S7 30.15R 4,100 KLAMATH FALLS PTCLDY 34 30 85 CALM 30.11S
I-5 North to South 400 AM PDT MON SEP 24 2018 ELEVA CITY SKY/WX TMP DP RH WIND PRES REMARKS 150 BELLINGHAM CLEAR 46 43 89 CALM 30.22R 100 ARLINGTON FOG 45 45 100 CALM 30.23R VSB 1 610 EVERETT PTCLDY 51 44 77 CALM 30.22S 30 SEATAC AIRPORT MOCLDY 51 43 74 SE3 30.22R 200 OLYMPIA MOCLDY 40 39 97 CALM 30.23R FOG 20 KELSO NOT AVBL 100 VANCOUVER CLEAR 47 46 97 CALM 30.20R 40 PORTLAND CLEAR 51 46 83 CALM 30.21R 200 SALEM CLEAR 44 40 85 CALM 30.20R 360 EUGENE CLEAR 44 39 82 N10 30.19S 510 ROSEBURG CLEAR 48 39 71 CALM 30.16R 1,300 MEDFORD CLEAR 43 34 70 NE3 30.12S
Data from:
http://www.wrh.noaa.gov/sew/get.php?pil=RWR&sid=OR&version=0&format=printer
http://www.wrh.noaa.gov/sew/get.php?pil=RWR&sid=WA&version=0&format=printer

Current Observations

Washington State Current Weather Observations   …  Oregon State Current Weather Observation



48 Hour Forecast

Seattle  …  Vancouver  …  Portland
————————————————————————————————————————
Bend  …  Spokane  …  Richland  …  Pendleton  …  Blue Mountains I-84  …  Yakima
————————————————————————————————————————
Goldendale, Washington Higher Elevations  …  Dallesport Airport - Goldendale  …  Bingen - White Salmon - Hood River  …  Index


Top of Page